Preview of NWS' New Version of Forecast
This preview is not operational and should not be used for support decisions.
Latest weather observations around

Houston Intercontinental Airport (KIAH)

Using International System of Units (Switch to English Units)
Date/ Time (CDT) Wind (kph) Vis. (km) Weather Sky Cond. Temp (°C) Rel. Humidity Wind Chill (°C) Heat Index (°C) Pressure Precip. (cm)
Air Dwpt 6 hour Altimeter (hPa) Sea level (hPa) 1 hr 3 hr 6 hr
Max Min
Sep 16 20:53 E 17 16.09 Mostly Cloudy FEW020 FEW070 BKN250 25 22     84%   26 1013.6 1013.6      
Sep 16 19:53 E 21 16.09 Mostly Cloudy FEW017 FEW075 SCT150 BKN180 BKN250 26 22     79%   26 1013.2 1013.3      
Sep 16 18:53 E 21 16.09 Mostly Cloudy FEW018 FEW075 BKN150 BKN180 BKN250 26 22     79%   28 1013.2 1013 0   0
Sep 16 17:53 ENE 21 16.09 Light Rain FEW019 SCT045 SCT075 BKN150 BKN250 26 23     82%   28 1013.6 1013.4 0    
Sep 16 16:53   16.09 Mostly Cloudy FEW050 FEW070 SCT110 BKN150 BKN250 28 23     74%   32 1013.6 1013.5 0    
Sep 16 15:53   11.27 Rain SCT050 SCT075 BKN095 BKN250 27 23     79%   30 1013.2 1013.1 0 0  
Sep 16 15:08 SSE 22 16.09 Mostly Cloudy SCT055 SCT075 BKN100 BKN250 33 22     51%   37 1012.5        
Sep 16 14:53 SSE 22 16.09 Mostly Cloudy SCT055 SCT075 BKN100 BKN250 33 22     52%   37 1012.9 1012.8      
Sep 16 13:53 ENE 22 16.09 Mostly Cloudy FEW048 SCT075 BKN250 34 20     43%   37 1014.2 1013.9      
Sep 16 12:53 ENE 22 16.09 Mostly Cloudy SCT048 SCT075 BKN250 34 20     44%   36 1014.9 1014.8      
Sep 16 11:53 ENE 26 16.09 Mostly Cloudy SCT044 BKN250 33 21     49%   36 1015.6 1015.4      
Sep 16 10:53 ENE 24 16.09 Partly Cloudy FEW038 SCT250 32 21     52%   35 1015.9 1015.8      
Sep 16 09:53 NNE 18 16.09 Mostly Clear FEW025 FEW250 31 23     63%   35 1016.3 1015.9      
Sep 16 08:53 NNE 13 16.09 Mostly Clear FEW250 28 23     74%   31 1015.9 1015.7      
Sep 16 07:53 9 16.09 Mostly Clear FEW250 26 22     82%   26 1015.6 1015.4      
Sep 16 06:53 Calm 16.09 Mostly Clear FEW250 24 22     85%   25 1015.6 1015.2      
Sep 16 05:53 N 5 16.09 Mostly Clear FEW250 24 22     85%   25 1015.2 1015.1      
Sep 16 04:53 NNW 5 16.09 Partly Cloudy SCT250 24 22     88%   25 1015.2 1015      
Sep 16 03:53 Calm 16.09 Partly Cloudy SCT250 24 22     88%   25 1015.2 1015.2      
Sep 16 02:53 Calm 16.09 Partly Cloudy SCT120 SCT250 24 22     85%   25 1015.6 1015.3      
Sep 16 01:53 Calm 16.09 Mostly Clear FEW120 FEW250 24 22     85%   25 1015.6 1015.5      
Sep 16 00:53 N 5 16.09 Partly Cloudy FEW120 SCT250 24 22     85%   25 1015.6 1015.4      
Sep 15 23:53 Calm 16.09 Partly Cloudy FEW070 FEW110 SCT250 26 22     79%   26 1015.2 1015.2      
Sep 15 22:53 S 5 16.09 Partly Cloudy FEW100 SCT250 26 22     77%   28 1015.2 1015.2      
Sep 15 21:53 S 9 16.09 Partly Cloudy FEW050 FEW100 SCT250 28 21     65%   31 1015.2 1015.2      
Sep 15 20:53 S 5 16.09 Mostly Clear FEW060 FEW100 FEW250 28 21     65%   31 1014.6 1014.5      
Sep 15 19:53 SSE 9 16.09 Mostly Clear FEW060 FEW100 FEW250 30 21     59%   33 1014.2 1014.2      
Sep 15 18:53 ESE 11 16.09 Partly Cloudy FEW065 SCT095 SCT250 29 22     63%   32 1014.2 1014.2 0   0
Sep 15 17:53 ESE 15 16.09 Light Rain SCT065 SCT095 SCT250 29 22     67%   32 1014.2 1014 0    
Sep 15 16:53 ENE 17 16.09 Partly Cloudy SCT065 SCT090 SCT250 36 19     38%   38 1013.9 1013.6      
Sep 15 15:53 E 17 16.09 Mostly Cloudy SCT065 BKN090 BKN250 34 18     39%   36 1014.2 1013.9      
Sep 15 14:53 ENE 18 16.09 Partly Cloudy SCT065 SCT250 34 18     40%   35 1014.9 1014.7      
Sep 15 13:53 E 18 16.09 Partly Cloudy SCT060 SCT250 34 19     41%   36 1015.9 1015.6      
Sep 15 12:53 ESE 17 16.09 Partly Cloudy SCT055 SCT250 33 19     44%   35 1016.6 1016.6      
Sep 15 11:53 NE 21 16.09 Partly Cloudy SCT050 SCT250 32 19     45%   34 1017.3 1017.2      
Sep 15 10:53 NNE 15 16.09 Partly Cloudy FEW041 FEW150 SCT250 33 21     49%   36 1017.6 1017.4      
Sep 15 09:53 NNE 17 16.09 Mostly Clear FEW030 FEW150 31 22     61%   34 1017.6 1017.5      
Sep 15 08:53 NNE 13 16.09 Mostly Clear FEW130 FEW250 28 23     74%   31 1017.3 1017.2      
Sep 15 07:53 N 9 16.09 Mostly Clear FEW130 25 22     84%   26 1016.9 1016.8      
Sep 15 06:53 N 5 16.09 Mostly Clear FEW130 24 22     88%   25 1016.9 1016.9      
Sep 15 05:53 NW 5 16.09 Mostly Clear FEW030 FEW130 24 22     85%   25 1016.9 1016.9      
Sep 15 04:53 NNE 5 16.09 Mostly Clear FEW035 24 22     85%   25 1016.9 1016.8      
Sep 15 03:53 Calm 16.09 Mostly Clear FEW035 25 22     82%   26 1016.9 1016.8      
Sep 15 02:53 Calm 16.09 Clear CLR 24 22     88%   25 1017.6 1017.4      
Sep 15 01:53 Calm 16.09 Clear CLR 24 22     85%   25 1018 1017.6      
Sep 15 00:53 Calm 16.09 Clear CLR 24 22     85%   25 1018 1017.7      
Sep 14 23:53 Calm 16.09 Clear CLR 24 22     85%   25 1017.6 1017.5      
Sep 14 22:53 Calm 16.09 Mostly Clear FEW120 26 21     76%   26 1017.6 1017.6      
Sep 14 21:53 Calm 16.09 Mostly Clear FEW120 26 21     74%   28 1017.3 1017.1      
Sep 14 20:53 S 8 16.09 Mostly Clear FEW120 FEW250 29 21     61%   31 1016.6 1016.5      
Sep 14 19:53 SSE 18 16.09 Partly Cloudy FEW060 FEW120 SCT250 30 21     59%   33 1016.3 1016.1      
Sep 14 18:53 SE 24 16.09 Partly Cloudy FEW070 FEW120 SCT250 32 22     55%   35 1015.9 1015.9      
Sep 14 17:53 ESE 24 16.09 Partly Cloudy FEW070 FEW110 SCT250 33 21     47%   36 1015.9 1015.8      
Sep 14 16:53   16.09 Partly Cloudy SCT070 SCT110 SCT250 34 17     36%   34 1015.6 1015.3      
Sep 14 15:53   16.09 Partly Cloudy SCT075 SCT120 35 18     36%   36 1015.6 1015.5      
Sep 14 14:53 E 22 16.09 Mostly Clear FEW075 36 18     36%   37 1016.3 1016      
Sep 14 13:53 E 24 16.09 Partly Cloudy SCT070 36 19     38%   38 1016.9 1016.8      
Sep 14 12:53 ENE 21 16.09 Mostly Clear FEW070 36 19     38%   38 1017.6 1017.3      
Sep 14 11:53 NE 18 16.09 Mostly Clear FEW040 35 19     39%   37 1018.3 1018.1      
Sep 14 10:53 NE 13 16.09 Mostly Clear FEW080 FEW250 33 21     47%   36 1019 1018.6      
Sep 14 09:53 NNE 9 16.09 Mostly Clear FEW080 FEW250 30 22     61%   33 1019 1018.9      
Sep 14 08:53 N 8 16.09 Partly Cloudy FEW030 FEW080 SCT250 26 22     77%   28 1019 1019      
Sep 14 07:53 NNW 9 14.48 Mostly Clear FEW030 FEW250 24 21     82%   25 1018.6 1018.7      
Sep 14 06:53 Calm 16.09 Mostly Clear FEW030 24 21     84%   25 1018.3 1018.3      
Sep 14 05:53 NNW 9 16.09 Clear CLR 24 21     84%   25 1018.3 1018      
Sep 14 04:53 NNW 8 16.09 Clear CLR 25 21     79%   26 1017.6 1017.5      
Sep 14 03:53 Calm 16.09 Clear CLR 25 21     79%   26 1017.6 1017.6      
Sep 14 02:53 Calm 16.09 Clear CLR 24 21     82%   25 1018.3 1018      
Sep 14 01:53 Calm 16.09 Clear CLR 24 22     85%   25 1018.3 1018.2      
Sep 14 00:53 W 5 16.09 Clear CLR 26 22     79%   26 1018.3 1018.2     0
Sep 13 23:53 Calm 16.09 Mostly Clear FEW120 FEW250 26 23     85%   26 1018.3 1018.2      
Sep 13 22:53 NNW 5 16.09 Mostly Clear FEW120 FEW250 26 23     87%   26 1018.6 1018.3      
Sep 13 21:53 Calm 16.09 Mostly Clear FEW120 FEW250 25 23     88%   26 1018.3 1018.2   0  
Sep 13 20:53 Calm 16.09 Clear   26 23     85%   26 1017.6 1017.6      
May 15 10:53 SW 8 16.09 Mostly Cloudy FEW030 BKN180 BKN250 28 20     61%   30 1015.6 1015.6      
May 15 05:53 Calm 11.27 Fog FEW008 FEW250 19 19     100%     1013.2 1013      
May 14 16:53   16.09 Mostly Cloudy FEW065 BKN250 32 20     49%   34 1012.9 1012.7      
May 11 14:53 S 21 16.09 Partly Cloudy SCT050 32 18     45%   33 1014.2 1014.1      
Jun 10 20:53 SE 24 16.09 Mostly Clear FEW035 26 21     74%   28 1012.2 1012.2      
Jun 09 22:53 S 5 16.09 Mostly Cloudy FEW050 SCT180 BKN250 24 18     71%   24 1012.9 1012.7      
Jun 09 06:53 Calm 16.09 Partly Cloudy FEW070 SCT250 21 18     87%     1012.9 1012.7      
Jun 08 18:53 NE 13 16.09 Mostly Clear FEW070 FEW250 30 16     42%   30 1011.2 1011.1      
Jun 06 09:53 NNW 11 16.09 Mostly Clear FEW020 27 23     77%   30 1008.5 1008.6      
Jun 06 06:53 WNW 5 16.09 Mostly Clear FEW020 FEW070 FEW250 23 22     94%   24 1008.1 1008      
Notice The following observation data may not be complete
Jun 05 18:23   0.8 Thunderstorms and Heavy Rain and Fog/Mist SCT024 SCT042 BKN070 BKN130 BKN250          %         0